Weather Roundup
Issued by NWS Chicago, IL

Home | Current Version | Previous Version | Graphics & Text | Print | Product List | Glossary On
Versions: 1 2 3 4 5 6 7 8 9 10 11 12 13 14 15 16 17 18 19 20 21 22 23 24 25 26 27 28 29 30 31 32 33 34 35 36 37 38 39 40 41 42 43 44 45 46 47 48 49 50
000
NZUS59 KLOT 260904
HRRLOT

CHICAGO AREA WEATHER ROUNDUP
NATIONAL WEATHER SERVICE CHICAGO/ROMEOVILLE IL
400 AM CDT MON SEP 26 2016

NOTE: "FAIR" INDICATES FEW OR NO CLOUDS BELOW 12,000 FEET WITH NO
SIGNIFICANT WEATHER AND/OR OBSTRUCTIONS TO VISIBILITY.

* THESE STATIONS ARE NOT UNDER NWS QUALITY CONTROL. THEY ALSO MAY NOT
  REPORT WEATHER SUCH AS PRECIPITATION OR FOG.

ILZ005-006-012>014-019>023-261000-
NORTHEAST ILLINOIS

CITY           SKY/WX    TMP DP  RH WIND       PRES   REMARKS
OHARE          CLOUDY    61  50  67 NW14G24   29.95F
MIDWAY         CLOUDY    62  53  72 W10       29.96F
AURORA         CLOUDY    61  50  67 W12       30.00R
LANSING*       LGT RAIN  60  58  95 W9        29.98S
WAUKEGAN       CLOUDY    60  51  72 W7        29.93S
DUPAGE AIRPORT CLOUDY    61  50  67 W12       29.97S
WHEELING       CLOUDY    61  50  67 W12       29.96S
KANKAKEE*      DRIZZLE   58  58  97 W7        30.00F
NORTHERLY ISL    N/A     63  53  70 W7          N/A
$$

WIZ051-052-058>065-066-070>072-261000-
SOUTHEAST WISCONSIN

CITY           SKY/WX    TMP DP  RH WIND       PRES   REMARKS
MILWAUKEE      CLOUDY    61  50  67 W9G20     29.92S
KENOSHA*       CLOUDY    59  52  77 W9        29.94S
RACINE*        CLOUDY    60  50  69 W8        29.94S
WAUKESHA       CLOUDY    55  46  71 W12       29.94S
WEST BEND      CLOUDY    55  48  76 W14G21    29.90S
$$

INZ001>003-010>013-019-020-261000-
NORTHWEST INDIANA

CITY           SKY/WX    TMP DP  RH WIND       PRES   REMARKS
GARY*          LGT RAIN  61  59  92 SW5       29.98S
MICHIGAN CITY* NOT AVBL
RENSSELAER*    NOT AVBL
VALPARAISO     LGT RAIN  59  56  89 W10       29.99R
$$

LMZ740>746-261000-
SOUTHERN LAKE MICHIGAN

STATION/POSITION TIME  SKY/WX   TEMP WIND        PRES    VSBY
                                AIR  DIR/SP/G
                 (UTC)          (F)  (DEG/KT/KT) (MB)    (MI)
HARRISON CRIB    0800            63  270/ 17/ 19   N/A
BURNHAM HARBOR   0900            62  280/  9/ 11   N/A
CALUMET HARBOR   0800            60  230/  5/  9 1014.4F
BURNS HARBOR     0800            62  290/ 20     1014.9S
MICHIGAN CITY    0800            64  250/ 26/ 28   N/A
$$

ABBREVIATIONS USED IN REMARKS
   TC - TEMPERATURE IN CELSIUS
  WCI - WIND CHILL INDEX
   HX - HEAT INDEX
  VSB - VISIBILITY
$$




USA.gov is the U.S. government's official web portal to all federal, state and local government web resources and services.